ARCE-1C (47484 NORAD) Tracking and Keplerian Element Data

This shows tracking and keplerian element data for the satellite.

Feedback or suggestion? Click here.




ElementValue
Catalog47484
NameARCE-1C
Epoch Orbit1168
Epoch Day99.89673949
Epoch Year2021
RAAN162.2684
Inclination97.4956
Eccentricity0.00095
Argument of Perigee352.041
Mean Anonmoly8.0668
Mean Motion15.12422959
Decay Rate1.164E-05
L11 47484U 21006BZ 21099.89673949 .00001164 00000-0 70653-4 0 9999
L22 47484 97.4956 162.2684 0009500 352.0410 8.0668 15.12422959 11681

Live tracking and technical data element details for ARCE-1C (NORAD 47484). ARCE-1C can be tracked NOW for your location showing map with azimuth and elevation plus other details from your city location.

Track the satellite on the map from your city or location and see movement details for azimuth, elevation, latitude, longitude, range, height, and movement on the map or in text.







IsCatalogInMostPopularTable: catalog: 47484, numindb: 13
Update: records affected: 1



GetName: 47484 ARCE-1C

Hit Count: updated at: Sat, 10 Apr 2021 19:14:53 GMT